Wind_Speed
60 56 54 53 52 48 45 43 41 37 33 30 29 26 25 20 15 10 16 16 13 16 17 13 12 15 15 11 14 14 21 17 15 24 28 31 33 38 46 47 48 46 44 41 37
61 57 56 54 53 50 48 45 43 40 37 32 31 29 27 24 18 14 13 19 17 13 18 14 9 12 6 8 14 8 17 11 10 14 21 25 26 28 37 42 44 44 42 40 39
63 60 57 55 54 53 51 48 45 43 41 37 34 32 30 29 25 18 15 19 19 17 14 15 8 5 8 3 5 4 5 4 6 8 15 20 22 25 27 31 38 41 42 40 39
64 63 60 57 55 56 54 52 48 46 44 42 39 36 34 32 30 25 21 19 22 20 17 23 16 17 11 11 4 4 3 5 3 3 8 14 13 17 21 23 29 34 37 40 39
63 65 62 58 57 58 55 55 52 48 47 46 43 39 38 37 35 32 27 23 21 22 22 19 23 22 11 6 6 7 12 10 4 1 1 6 8 14 19 16 21 27 30 35 37
58 65 65 63 59 57 59 56 55 53 51 49 47 45 42 40 37 36 33 29 26 24 24 23 21 27 26 19 15 13 12 13 10 6 5 1 8 8 14 11 16 19 24 27 31
52 59 64 65 62 60 58 60 58 57 55 53 50 48 46 45 42 39 38 35 32 28 26 26 22 25 28 24 18 18 15 13 14 10 10 7 1 4 8 4 13 14 14 20 21
46 54 61 67 65 63 61 61 61 59 58 55 54 52 50 48 46 43 41 41 38 35 32 30 27 25 27 27 20 25 20 23 13 16 12 2 10 2 2 8 13 14 10 13 17
43 47 55 62 68 67 64 63 63 62 61 59 57 56 53 52 51 48 46 45 44 42 39 36 34 31 29 30 28 25 26 23 18 18 19 11 13 10 9 15 15 12 8 9 13
41 43 49 55 62 68 68 65 64 65 65 63 62 61 58 56 55 53 51 49 47 46 44 43 41 39 35 34 34 31 32 33 30 26 23 21 18 16 16 17 12 12 6 4 7
42 43 44 50 56 60 67 70 68 67 66 66 65 65 66 61 59 58 56 53 52 51 50 49 48 46 42 40 39 36 37 36 35 34 34 34 29 21 15 16 12 14 10 7 7
45 45 47 47 50 56 60 62 70 71 70 70 69 68 68 66 65 63 62 60 59 57 56 55 53 51 50 47 46 42 41 41 44 42 40 39 39 36 33 31 26 19 15 12 11
45 48 48 50 51 53 56 60 61 64 70 73 71 72 70 70 68 67 67 66 64 63 61 60 56 58 54 55 53 53 49 50 50 51 49 48 45 43 38 38 35 36 30 29 28
45 48 50 52 54 55 56 57 60 64 63 66 71 75 74 72 71 70 70 71 70 68 67 67 62 65 59 61 59 59 55 58 55 56 55 56 58 54 48 46 42 38 40 39 36
38 44 49 52 56 57 58 59 60 62 65 62 62 67 73 76 73 73 72 70 71 71 73 73 68 70 68 64 67 62 63 62 60 61 59 60 63 63 58 55 49 44 42 45 46
33 42 46 50 54 56 60 60 61 62 63 59 64 67 66 69 74 75 75 75 73 73 74 72 73 74 72 72 73 70 70 70 67 66 64 66 68 72 63 62 55 49 47 38 29
24 29 41 50 53 55 57 59 63 64 60 59 63 65 67 68 68 71 74 75 74 75 77 73 73 73 74 75 74 74 74 74 74 73 73 76 73 82 67 65 62 58 60 61 51
34 32 32 38 51 57 57 58 61 65 64 63 66 65 64 63 68 70 71 72 73 75 75 76 76 72 74 75 74 76 75 77 74 79 78 78 81 88 74 71 70 69 67 67 64
41 42 40 40 42 50 57 60 63 63 65 64 68 67 66 65 65 66 68 70 67 73 74 72 72 70 76 78 78 76 80 75 78 80 80 81 87 88 84 81 82 77 73 70 72
51 50 49 48 48 47 48 55 64 65 61 62 66 69 68 68 67 67 66 62 64 66 68 68 71 71 70 76 77 75 76 78 78 78 80 82 86 93 88 88 83 81 79 80 80
63 64 57 58 55 51 49 55 55 58 64 67 64 64 66 70 69 70 68 64 65 67 68 67 67 68 65 74 71 70 72 74 77 75 77 78 86 91 94 83 82 85 82 82 80
73 71 64 64 60 60 57 57 55 47 56 59 66 65 66 63 63 68 69 64 65 70 71 67 72 74 70 72 73 75 73 72 73 74 74 75 78 90 91 90 84 85 81 82 78
59 65 68 68 64 65 65 60 49 47 53 54 55 60 64 65 67 66 63 60 68 66 66 68 71 71 72 74 75 75 71 72 75 77 75 79 76 95 88 91 98 82 77 76 80
45 49 61 69 71 67 67 60 51 52 52 47 51 47 51 59 61 66 66 64 68 66 69 69 70 70 69 75 73 69 73 76 76 76 76 76 75 93 98 96 93 85 78 76 78
35 38 49 62 71 73 67 61 57 43 54 44 46 47 48 49 49 55 58 57 63 65 67 70 71 71 72 74 77 75 74 77 79 78 81 78 83 89 93 99 100 87 85 81 80
28 33 42 49 65 70 66 59 58 44 47 44 40 47 47 46 46 49 49 51 54 54 61 62 64 64 64 68 70 73 75 74 75 76 76 74 78 86 96 97 95 89 85 83 85
21 26 33 41 55 65 65 59 58 44 39 48 39 37 41 42 43 47 49 49 51 52 55 58 59 60 62 67 70 73 80 77 76 77 81 82 83 86 94 89 85 85 84 82 88
Wind_Direction
195 197 196 196 196 198 202 202 199 202 205 202 203 204 205 210 210 203 196 185 184 183 164 123 117 83 73 54 89 81 102 60 39 69 64 60 62 65 74 71 70 69 72 74 74
197 198 199 199 198 200 203 202 203 200 206 207 208 208 214 215 216 210 201 188 197 193 161 145 134 113 85 52 92 85 80 55 26 54 68 66 60 62 66 67 66 67 67 67 71
198 200 201 200 201 201 204 203 205 204 204 208 211 213 214 220 224 212 208 193 202 197 181 170 174 193 159 127 90 108 64 68 20 31 69 64 52 60 59 63 68 64 63 63 61
202 201 202 204 204 203 206 206 206 207 208 208 211 214 216 219 222 223 214 207 208 211 203 202 182 179 215 156 161 141 144 149 313 4 58 65 45 40 43 52 66 65 59 59 60
204 204 205 206 207 208 208 210 208 207 211 212 212 215 217 220 222 225 221 217 214 214 214 215 198 184 189 205 217 198 182 188 211 151 186 54 47 19 28 41 51 55 48 54 54
207 207 207 207 209 211 210 211 213 211 210 213 215 216 217 221 223 224 226 223 220 219 224 230 231 215 203 196 211 190 201 204 218 203 248 3 343 2 351 30 31 27 56 35 47
214 211 209 210 211 212 216 213 214 215 216 215 216 219 220 221 224 223 227 229 225 225 226 231 232 233 241 218 196 194 201 227 209 208 227 230 336 123 356 27 4 3 15 32 20
219 217 214 213 214 215 216 218 219 218 219 219 220 220 222 224 225 227 227 230 232 227 227 229 231 233 241 242 240 197 198 214 198 200 206 58 199 320 256 327 319 312 354 10 4
222 222 220 219 217 217 219 220 221 222 222 223 222 222 224 226 228 228 229 230 232 232 230 229 232 232 234 241 247 245 238 224 221 189 206 202 242 288 249 277 299 279 294 323 326
223 223 224 224 224 222 221 223 224 224 225 224 225 226 226 227 229 231 231 232 234 236 235 234 231 233 234 238 245 248 250 259 249 231 208 209 241 245 254 261 264 262 228 278 308
224 224 225 226 226 227 227 226 227 227 228 230 229 228 229 230 232 233 233 234 236 237 239 239 238 234 234 236 241 244 249 251 256 257 251 234 258 236 221 242 267 236 229 260 239
226 225 226 228 228 228 228 229 231 231 231 232 232 232 232 232 233 235 237 238 239 239 239 241 241 242 240 238 238 242 245 250 255 256 257 257 262 263 267 272 260 264 262 258 249
231 229 227 229 230 231 230 232 232 233 234 235 234 235 235 236 236 238 239 240 241 243 243 244 244 246 243 244 242 240 244 247 250 255 258 260 259 260 261 265 268 272 269 267 275
239 236 234 232 231 230 231 233 234 234 235 236 237 237 237 238 239 240 241 243 244 245 245 247 246 248 247 250 250 246 245 246 245 250 254 261 263 260 259 259 258 263 270 277 277
243 241 241 240 238 235 233 233 233 234 235 236 237 238 238 239 239 240 241 242 244 246 247 247 249 251 249 250 254 250 253 250 248 251 252 253 258 260 260 259 257 259 261 272 273
256 249 244 242 241 240 239 237 236 236 236 234 237 238 239 239 240 241 242 244 244 245 246 247 248 249 250 251 253 253 254 256 254 254 254 255 257 256 253 258 262 260 257 243 238
276 266 254 247 243 242 240 241 241 240 237 234 238 237 238 239 240 241 243 243 244 246 247 248 249 249 251 252 253 253 254 256 258 258 259 256 256 258 253 257 256 257 260 258 255
280 275 270 261 249 245 242 242 241 242 240 236 241 240 238 238 240 241 242 243 244 247 248 250 249 252 253 252 253 255 255 254 257 258 259 262 260 260 258 257 254 251 254 260 259
279 274 268 265 261 252 247 242 241 242 241 240 242 242 242 241 240 240 242 244 246 246 248 249 251 251 252 252 253 253 255 256 254 255 257 260 260 262 262 259 257 256 256 257 258
280 275 265 261 259 257 250 247 244 241 242 241 241 241 242 242 242 243 243 243 245 247 248 249 250 249 252 253 254 253 254 255 255 257 258 259 261 261 259 261 262 261 258 255 255
279 272 265 256 252 252 251 246 247 243 240 240 241 242 242 243 244 245 245 246 247 250 249 248 251 249 250 253 254 255 253 255 257 256 257 258 260 261 263 259 258 260 258 258 256
272 262 255 251 245 243 247 242 244 247 246 242 241 241 243 244 245 245 247 247 251 249 252 253 252 254 251 255 256 254 257 257 258 258 258 259 262 261 263 263 258 256 257 259 258
259 251 240 237 233 236 238 241 238 242 248 245 245 242 243 242 244 248 247 248 250 252 253 253 255 255 256 255 254 261 260 259 259 258 259 259 259 265 262 261 259 258 259 261 263
259 247 237 229 223 228 233 238 231 239 241 245 245 246 245 245 245 247 249 248 251 252 253 254 255 256 258 260 259 254 259 260 259 258 256 259 258 263 263 262 264 262 259 257 258
258 247 234 225 218 220 225 229 228 237 240 239 244 244 245 248 249 251 252 251 254 253 255 256 257 258 258 260 261 259 257 259 261 260 259 258 258 260 264 265 261 261 260 259 258
261 240 230 220 215 214 219 223 226 233 244 237 246 248 251 253 253 254 256 252 253 257 257 258 259 259 259 259 260 261 258 255 254 257 259 257 257 257 258 265 268 267 261 257 256
260 230 219 212 210 210 215 217 222 227 239 245 247 252 253 260 261 255 260 262 261 261 262 266 263 262 262 263 262 262 260 261 260 258 258 257 258 260 262 260 262 263 262 258 252
Height
10935 10943 10949 10956 10962 10968 10974 10979 10984 10990 10994 10999 11003 11006 11009 11012 11014 11015 11018 11022 11025 11027 11028 11029 11029 11030 11027 11023 11027 11029 11027 11027 11028 11029 11027 11024 11023 11019 11013 11010 11006 11004 11003 11001 11000
10931 10938 10946 10952 10959 10965 10971 10976 10981 10986 10991 10996 11000 11004 11008 11010 11013 11015 11018 11021 11024 11026 11029 11030 11031 11033 11028 11025 11024 11029 11026 11028 11031 11031 11031 11028 11027 11025 11021 11016 11014 11011 11009 11007 11004
10926 10934 10942 10948 10955 10961 10967 10972 10977 10982 10987 10992 10997 11001 11005 11008 11011 11015 11017 11020 11023 11026 11028 11029 11031 11033 11032 11030 11027 11025 11030 11030 11032 11032 11032 11030 11029 11028 11025 11022 11019 11017 11015 11013 11011
10923 10930 10937 10944 10950 10956 10962 10967 10973 10978 10983 10988 10993 10998 11002 11006 11009 11012 11015 11018 11021 11024 11026 11028 11030 11032 11033 11031 11031 11030 11031 11032 11032 11033 11033 11031 11031 11028 11028 11026 11024 11023 11020 11018 11016
10917 10925 10932 10939 10945 10951 10957 10963 10968 10973 10978 10983 10989 10994 10998 11002 11005 11008 11012 11016 11018 11022 11025 11027 11029 11030 11033 11032 11032 11032 11032 11033 11033 11033 11034 11034 11032 11030 11028 11028 11027 11027 11027 11024 11021
10913 10919 10926 10933 10940 10946 10952 10958 10963 10968 10973 10978 10983 10989 10994 10998 11002 11004 11007 11011 11015 11018 11022 11024 11027 11028 11028 11032 11032 11033 11033 11032 11033 11034 11034 11034 11032 11031 11030 11030 11029 11030 11029 11029 11027
10910 10915 10920 10927 10934 10940 10946 10951 10957 10962 10968 10972 10978 10983 10988 10993 10996 11000 11003 11006 11010 11014 11017 11021 11023 11026 11025 11028 11033 11033 11033 11031 11033 11034 11033 11033 11034 11032 11030 11031 11030 11032 11033 11032 11032
10905 10911 10915 10921 10927 10933 10939 10944 10950 10956 10961 10966 10971 10976 10981 10986 10990 10994 10998 11001 11004 11009 11013 11016 11019 11021 11021 11023 11026 11030 11030 11030 11033 11033 11033 11031 11033 11031 11031 11031 11031 11032 11034 11034 11034
10901 10906 10910 10915 10920 10925 10931 10936 10942 10948 10954 10959 10964 10969 10974 10978 10983 10987 10991 10995 10998 11002 11006 11011 11013 11017 11019 11020 11021 11026 11027 11028 11030 11032 11032 11032 11031 11030 11029 11030 11030 11031 11034 11035 11035
10895 10900 10904 10908 10914 10918 10923 10929 10934 10940 10945 10951 10956 10961 10967 10970 10974 10979 10983 10988 10992 10995 10999 11003 11007 11010 11014 11016 11017 11019 11020 11021 11024 11028 11028 11030 11030 11029 11029 11029 11029 11029 11030 11032 11034
10888 10892 10896 10901 10906 10910 10916 10921 10925 10931 10937 10942 10947 10952 10956 10963 10967 10971 10975 10979 10984 10988 10991 10993 10997 11002 11007 11009 11011 11014 11015 11016 11017 11019 11022 11023 11025 11028 11027 11028 11028 11027 11028 11030 11031
10881 10885 10888 10892 10897 10901 10906 10910 10915 10921 10926 10932 10937 10942 10948 10953 10958 10961 10966 10970 10974 10978 10981 10984 10989 10994 10997 11001 11004 11007 11009 11010 11009 11011 11012 11016 11017 11019 11022 11024 11026 11029 11027 11028 11029
10874 10877 10880 10883 10887 10891 10896 10900 10904 10909 10915 10921 10926 10931 10937 10943 10948 10952 10955 10959 10963 10967 10971 10974 10982 10981 10988 10990 10994 10998 11002 11003 11003 11003 11005 11007 11009 11012 11016 11019 11021 11022 11025 11025 11027
10866 10869 10871 10874 10877 10880 10884 10889 10894 10898 10902 10907 10913 10919 10924 10930 10936 10939 10946 10948 10952 10956 10960 10962 10971 10968 10978 10978 10983 10985 10993 10990 10997 10996 10998 10998 10996 11001 11007 11010 11016 11020 11022 11022 11023
10857 10859 10861 10864 10867 10868 10872 10876 10881 10884 10888 10903 10906 10905 10911 10916 10925 10926 10931 10936 10940 10944 10945 10950 10959 10958 10963 10969 10966 10976 10976 10980 10986 10986 10989 10990 10986 10986 10994 10998 11008 11015 11020 11020 11020
10848 10849 10850 10852 10854 10856 10859 10864 10868 10871 10876 10888 10889 10892 10897 10903 10908 10912 10918 10921 10926 10928 10931 10941 10941 10945 10954 10954 10955 10962 10963 10965 10971 10974 10979 10976 10973 10970 10986 10987 10998 11006 11013 11007 11031
10839 10838 10838 10841 10841 10843 10848 10851 10855 10858 10870 10875 10872 10877 10883 10890 10895 10898 10903 10906 10911 10914 10917 10927 10928 10933 10938 10940 10945 10946 10950 10951 10955 10959 10960 10955 10962 10945 10974 10978 10987 10993 10988 10993 11007
10828 10828 10828 10827 10826 10830 10834 10838 10843 10842 10852 10860 10857 10863 10869 10876 10880 10884 10887 10890 10895 10901 10905 10908 10913 10923 10923 10924 10930 10930 10934 10935 10945 10939 10943 10945 10937 10929 10958 10962 10966 10972 10977 10977 10984
10814 10813 10815 10815 10813 10814 10819 10826 10823 10828 10836 10846 10845 10850 10855 10860 10864 10868 10871 10879 10888 10884 10888 10892 10898 10906 10902 10906 10911 10919 10913 10926 10922 10921 10925 10926 10919 10917 10930 10940 10940 10953 10963 10970 10970
10796 10795 10797 10798 10799 10802 10806 10807 10807 10814 10824 10826 10830 10835 10842 10844 10850 10853 10858 10868 10868 10872 10873 10880 10882 10886 10892 10886 10890 10899 10902 10900 10904 10909 10909 10907 10899 10894 10909 10910 10927 10935 10943 10944 10949
10771 10770 10778 10776 10782 10788 10792 10788 10793 10800 10803 10810 10816 10821 10827 10830 10835 10838 10845 10854 10855 10855 10856 10863 10864 10870 10875 10865 10876 10881 10881 10884 10888 10894 10892 10893 10874 10873 10873 10901 10902 10901 10914 10923 10930
10733 10733 10750 10753 10762 10769 10774 10774 10779 10791 10788 10793 10800 10808 10810 10817 10821 10822 10827 10841 10838 10837 10841 10851 10846 10849 10860 10857 10858 10858 10867 10871 10871 10873 10876 10875 10867 10853 10851 10865 10882 10882 10893 10898 10911
10693 10698 10712 10723 10738 10745 10750 10756 10770 10778 10773 10782 10785 10793 10796 10804 10805 10808 10818 10826 10815 10826 10829 10829 10830 10837 10837 10837 10842 10844 10856 10850 10849 10852 10859 10853 10858 10811 10845 10835 10830 10869 10882 10887 10888
10667 10671 10679 10694 10710 10728 10735 10744 10759 10758 10764 10770 10774 10782 10784 10785 10794 10795 10802 10809 10805 10813 10810 10813 10814 10818 10822 10816 10826 10836 10827 10827 10831 10834 10835 10836 10837 10798 10795 10816 10823 10843 10859 10867 10865
10648 10652 10658 10670 10688 10702 10720 10732 10742 10751 10752 10761 10766 10769 10772 10776 10782 10782 10786 10797 10788 10794 10795 10795 10798 10803 10804 10801 10802 10810 10813 10809 10809 10809 10808 10814 10811 10798 10784 10776 10790 10826 10834 10844 10846
10633 10637 10644 10656 10672 10690 10706 10719 10729 10738 10745 10750 10756 10758 10763 10768 10771 10774 10776 10777 10778 10783 10778 10780 10782 10784 10785 10783 10781 10783 10786 10790 10787 10787 10788 10791 10788 10774 10755 10764 10780 10797 10809 10816 10816
10625 10629 10637 10648 10663 10680 10695 10709 10717 10728 10737 10742 10747 10750 10754 10760 10762 10759 10762 10765 10767 10768 10767 10764 10766 10767 10767 10763 10764 10762 10753 10765 10770 10770 10765 10764 10764 10761 10744 10756 10763 10764 10768 10778 10781